This is the latest recevied weather packets stored in our database for station/object OE-11061. If no packets are shown the sender has not sent any weather packets the latest 10 day(s).
| Time | Temp. | Humidity | Pressure | Rain* | Wind** | Luminosity | Snow |
|---|---|---|---|---|---|---|---|
| 1787958321 | 15.56° C | 91% | 1019.4 hPa | 0.25 mm | - | 0 W/m² | - |
| 1787957721 | 15.56° C | 92% | 1019.8 hPa | 0.51 mm | - | 0 W/m² | - |
| 1787956894 | 16.11° C | 92% | 1019.5 hPa | 1.52 mm | - | 0 W/m² | - |
| 1787956521 | 16.11° C | 94% | 1019.4 hPa | 1.78 mm | - | 0 W/m² | - |
| 1787955921 | 16.11° C | 93% | 1019.2 hPa | 2.03 mm | - | 0 W/m² | - |
| 1787955094 | 16.11° C | 94% | 1019.3 hPa | 2.29 mm | - | 0 W/m² | - |
| 1787954720 | 16.67° C | 93% | 1019.1 hPa | 2.29 mm | - | 0 W/m² | - |
| 1787954121 | 16.67° C | 94% | 1019.1 hPa | 2.03 mm | - | 0 W/m² | - |
| 1787953294 | 17.22° C | 94% | 1018.7 hPa | 1.78 mm | - | 0 W/m² | - |
| 1787952921 | 17.78° C | 94% | 1018.6 hPa | 0.76 mm | - | 0 W/m² | - |
| 1787952321 | 18.33° C | 93% | 1017.7 hPa | 0.25 mm | - | 0 W/m² | - |
| 1787951494 | 18.33° C | 92% | 1017.3 hPa | 0 mm | - | 0 W/m² | - |
| 1787951121 | 18.89° C | 91% | 1016.6 hPa | 0 mm | - | 0 W/m² | - |
| 1787950521 | 18.89° C | 93% | 1016.1 hPa | 0 mm | - | 0 W/m² | - |
| 1787949695 | 18.89° C | 91% | 1015.8 hPa | 0 mm | - | 0 W/m² | - |
| 1787949321 | 19.44° C | 92% | 1015.8 hPa | 0 mm | - | 0 W/m² | - |
| 1787948721 | 19.44° C | 93% | 1015.6 hPa | 0 mm | - | 0 W/m² | - |
| 1787947894 | 19.44° C | 94% | 1015.4 hPa | 0 mm | - | 0 W/m² | - |
| 1787947520 | 18.89° C | 95% | 1015.6 hPa | 0 mm | - | 0 W/m² | - |
| 1787946921 | 18.89° C | 95% | 1015.2 hPa | 0 mm | - | 0 W/m² | - |
| 1787946094 | 18.89° C | 95% | 1015.2 hPa | 0 mm | - | 0 W/m² | - |
| 1787945721 | 18.89° C | 95% | 1015 hPa | 0 mm | - | 0 W/m² | - |
| 1787945120 | 18.89° C | 96% | 1014.9 hPa | 0 mm | - | 0 W/m² | - |
| 1787944294 | 18.89° C | 96% | 1014.2 hPa | 0 mm | - | 0 W/m² | - |
| 1787943921 | 19.44° C | 94% | 1014.1 hPa | 0 mm | - | 0 W/m² | - |
* Rain latest hour (hover to see other rain measurements)
** Current wind speed in m/s (hover to see current wind gust speed)